This is the latest recevied weather packets stored in our database for station/object W3TMB. If no packets are shown the sender has not sent any weather packets the latest 10 day(s).
| Time | Temp. | Humidity | Pressure | Rain* | Wind** | Luminosity | Snow |
|---|---|---|---|---|---|---|---|
| 1778193605 | 16.67° C | 39% | 1005 hPa | 0 mm | - | 61 W/m² | - |
| 1778193301 | 16.67° C | 40% | 1005 hPa | 0 mm | - | 70 W/m² | - |
| 1778192998 | 16.67° C | 39% | 1005.2 hPa | 0 mm | - | 65 W/m² | - |
| 1778192696 | 16.67° C | 41% | 1005.5 hPa | 0 mm | - | 88 W/m² | - |
| 1778192392 | 16.67° C | 39% | 1005.3 hPa | 0 mm | - | 76 W/m² | - |
| 1778192088 | 16.67° C | 38% | 1005.3 hPa | 0 mm | - | 87 W/m² | - |
| 1778191785 | 16.67° C | 40% | 1005.2 hPa | 0 mm | - | 77 W/m² | - |
| 1778191483 | 16.67° C | 39% | 1005.1 hPa | 0 mm | - | 81 W/m² | - |
| 1778191179 | 16.67° C | 36% | 1005.1 hPa | 0 mm | - | 84 W/m² | - |
| 1778190876 | 16.67° C | 37% | 1005.2 hPa | 0 mm | - | 88 W/m² | - |
| 1778190573 | 16.67° C | 37% | 1005.4 hPa | 0 mm | - | 97 W/m² | - |
| 1778190271 | 16.67° C | 38% | 1005.1 hPa | 0 mm | - | 112 W/m² | - |
| 1778189966 | 16.67° C | 38% | 1005.3 hPa | 0 mm | - | 110 W/m² | - |
| 1778189663 | 17.22° C | 38% | 1005 hPa | 0 mm | - | 95 W/m² | - |
| 1778189360 | 17.22° C | 39% | 1005.1 hPa | 0 mm | - | 122 W/m² | - |
| 1778189055 | 17.22° C | 37% | 1005.2 hPa | 0 mm | - | 154 W/m² | - |
| 1778188753 | 17.22° C | 36% | 1005.1 hPa | 0 mm | - | 161 W/m² | - |
| 1778188449 | 16.67° C | 36% | 1005.2 hPa | 0 mm | - | 116 W/m² | - |
| 1778188146 | 17.22° C | 37% | 1005.1 hPa | 0 mm | - | 121 W/m² | - |
| 1778187843 | 17.78° C | 37% | 1005.2 hPa | 0 mm | - | 126 W/m² | - |
| 1778187539 | 17.78° C | 39% | 1005.1 hPa | 0 mm | - | 142 W/m² | - |
| 1778187236 | 17.22° C | 37% | 1005 hPa | 0 mm | - | 141 W/m² | - |
| 1778186933 | 17.22° C | 36% | 1005.1 hPa | 0 mm | - | 175 W/m² | - |
| 1778186629 | 17.22° C | 37% | 1005.2 hPa | 0 mm | - | 567 W/m² | - |
| 1778186327 | 16.67° C | 40% | 1005.4 hPa | 0 mm | - | 215 W/m² | - |
* Rain latest hour (hover to see other rain measurements)
** Current wind speed in m/s (hover to see current wind gust speed)